SCP
1 1 0 0 0 0 0 0 0 0 0 0 0 0 0 0 0 0 0 0 1 1 2 3 3 3 3 3 3 3 3 3 4 4 4 3 2 2 2 2 2 1 1 1 1 1 1 1 1
1 1 0 0 0 0 0 0 0 0 0 0 0 0 0 0 0 0 0 0 1 1 2 3 3 3 3 3 3 3 3 3 3 4 4 3 2 2 2 2 2 2 1 1 1 1 1 1 1
1 1 0 0 0 0 0 0 0 0 0 0 0 0 0 0 0 0 0 1 1 2 2 2 3 3 3 3 3 3 3 2 3 3 4 3 3 2 2 2 2 2 2 1 1 1 1 1 1
1 0 0 0 0 0 0 0 0 0 0 0 0 0 0 0 0 0 1 1 1 2 2 3 3 3 3 3 3 3 3 2 2 3 4 4 3 2 2 3 3 2 2 2 1 1 1 1 1
0 0 0 0 0 0 0 0 0 0 0 0 0 0 0 0 0 1 1 2 2 2 3 3 3 3 3 3 3 3 3 3 2 2 3 4 3 3 3 3 3 3 2 2 2 2 1 1 1
0 0 0 0 0 0 0 0 0 0 0 0 0 0 0 0 1 1 2 2 3 3 3 3 3 3 3 3 3 3 3 3 2 2 3 3 4 3 3 3 3 3 3 2 2 2 1 1 1
1 0 0 0 0 0 0 0 0 0 0 0 0 0 0 1 1 1 2 3 3 3 3 4 4 4 4 3 3 3 3 3 2 2 2 3 3 3 3 3 3 3 3 2 2 2 1 1 1
1 1 0 0 0 0 0 0 0 0 0 0 0 0 1 1 2 2 3 3 3 3 4 4 4 4 4 3 3 3 3 3 3 2 2 2 3 3 3 3 3 3 3 3 2 2 2 1 1
1 1 0 0 0 0 0 0 0 0 0 0 0 0 1 1 2 2 3 3 3 4 4 4 4 5 5 4 3 3 3 3 3 3 2 2 3 3 2 3 3 3 3 3 2 2 2 1 1
1 1 0 0 0 0 0 0 0 0 0 0 0 0 1 2 2 2 2 3 3 4 4 4 4 5 5 4 4 4 4 3 3 3 4 3 3 3 3 2 3 3 2 2 2 2 2 1 1
1 0 0 0 0 0 0 0 0 0 0 0 0 0 1 1 2 2 2 2 3 4 4 4 4 4 5 5 4 4 4 4 4 4 4 4 3 3 3 3 3 2 2 2 2 2 1 1 1
0 0 0 0 0 0 0 0 0 0 0 0 0 0 1 1 2 1 2 2 2 3 4 3 3 4 4 5 4 4 5 5 4 4 4 3 3 4 4 3 3 2 2 2 1 1 1 1 1
0 0 0 0 0 0 0 0 0 0 0 0 0 0 1 1 1 1 2 2 2 3 3 3 3 3 4 5 5 5 5 5 5 4 3 3 3 4 4 4 3 3 2 2 1 1 1 1 1
0 0 0 0 0 0 0 0 0 0 0 0 0 1 1 2 1 1 1 1 2 2 3 4 4 3 3 4 5 5 5 5 5 4 3 3 3 3 3 4 3 3 2 2 2 1 1 1 1
0 0 0 0 0 0 0 0 0 0 0 0 0 1 1 1 1 1 1 1 1 2 3 4 4 4 3 3 4 5 5 5 5 4 3 3 3 2 2 3 3 3 2 2 2 2 1 1 1
0 0 0 0 0 0 0 0 0 0 0 0 0 0 1 1 1 1 1 1 1 2 3 4 4 4 3 3 4 4 4 4 4 4 3 3 2 2 2 2 2 3 3 2 2 2 2 1 1
0 0 0 0 0 0 0 0 0 0 0 0 0 0 0 0 1 1 1 2 2 2 2 3 3 3 3 3 3 4 4 3 3 3 3 3 2 2 2 2 2 2 3 2 2 2 2 2 2
0 0 0 0 0 0 0 0 0 0 0 0 0 0 0 0 0 0 1 2 2 3 2 3 3 3 3 3 3 3 3 2 3 3 3 3 2 2 2 2 2 2 2 2 2 2 2 2 2
0 0 0 0 0 0 0 0 0 0 0 0 0 0 0 0 0 0 0 1 2 3 3 3 2 2 2 2 2 2 2 2 2 2 2 2 2 2 2 2 2 2 2 2 2 2 2 2 2
0 0 0 0 0 0 0 0 0 0 0 0 0 0 0 0 0 0 0 0 1 3 3 3 3 2 2 2 2 2 2 2 2 2 2 2 2 2 2 2 2 2 2 2 2 2 2 2 2
0 0 0 0 0 0 0 0 0 0 0 0 0 0 0 0 0 0 0 0 1 2 3 4 3 3 2 2 2 2 2 2 2 2 2 2 2 2 2 2 2 2 1 1 2 2 2 2 2
0 0 0 0 0 0 0 0 0 0 0 0 0 0 0 0 0 0 0 0 0 1 3 4 4 3 3 3 3 2 2 1 1 2 2 2 2 2 2 2 2 2 1 1 1 1 2 2 2
0 0 0 0 0 0 0 0 0 0 0 0 0 0 0 0 0 0 0 0 0 1 2 3 4 4 4 4 3 3 2 1 1 2 2 2 2 1 1 2 2 1 1 1 1 1 1 2 2
0 0 0 0 0 0 0 0 0 0 0 0 0 0 0 0 0 0 0 0 0 0 1 2 3 3 4 4 3 3 2 2 1 1 1 2 2 1 1 1 1 1 1 1 0 0 1 1 1
0 0 0 0 0 0 0 0 0 0 0 0 0 0 0 0 0 0 0 0 0 0 0 1 2 2 3 3 3 2 2 2 1 1 1 1 1 1 1 1 1 1 1 0 0 0 0 1 1
0 0 0 0 0 0 0 0 0 0 0 0 0 0 0 0 0 0 0 0 0 0 0 0 1 1 2 2 2 2 2 2 1 1 1 1 1 1 1 1 0 0 0 0 0 0 0 0 1
0 0 0 0 0 0 0 0 0 0 0 0 0 0 0 0 0 0 0 0 0 0 0 0 0 1 1 1 1 2 2 1 1 1 1 1 1 1 1 1 0 0 0 0 0 0 0 0 0
0 0 0 0 0 0 0 0 0 0 0 0 0 0 0 0 0 0 0 0 0 0 0 0 0 0 0 0 1 1 1 1 1 1 1 1 1 1 1 1 0 0 0 0 0 0 0 0 0
0 0 0 0 0 0 0 0 0 0 0 0 0 0 0 0 0 0 0 0 0 0 0 0 0 0 0 0 0 0 1 1 1 1 1 1 1 1 0 0 0 0 0 0 0 0 0 0 0
0 0 0 0 0 0 0 0 0 0 0 0 0 0 0 0 0 0 0 0 0 0 0 0 0 0 0 0 0 0 0 1 1 1 1 1 1 1 0 0 0 0 0 0 0 0 0 0 0
Wind_Speed
6 3 3 4 6 4 2 3 2 1 1 0 0 2 4 4 3 3 1 1 2 2 2 4 6 7 7 6 6 6 7 7 7 7 8 7 8 8 8 8 8 8 8 9 9 10 10 10 11
2 2 5 6 5 1 4 3 3 3 2 1 1 2 2 0 1 1 1 2 1 2 2 3 5 7 7 6 6 6 6 6 7 7 7 7 7 7 7 7 7 8 8 9 9 9 9 10 10
2 4 5 5 4 5 4 2 3 2 0 1 1 2 1 1 1 1 2 1 2 2 1 2 5 6 7 6 6 6 5 6 6 6 6 6 6 6 6 7 7 8 8 9 9 9 9 9 9
3 5 5 4 4 5 3 1 1 0 1 2 2 1 1 1 1 2 1 1 3 2 2 1 4 6 6 6 6 5 5 5 5 6 6 6 6 6 6 6 6 7 8 8 8 8 9 9 9
5 5 4 1 4 3 2 2 0 0 1 1 2 1 1 3 3 2 2 2 2 1 1 1 3 5 6 6 5 4 5 5 4 5 5 5 5 5 5 5 6 6 7 7 7 8 8 8 8
5 5 3 4 5 3 1 1 0 0 0 1 2 1 1 2 4 2 2 2 2 1 1 1 3 5 5 5 5 4 4 4 4 3 4 5 5 5 5 5 5 5 6 6 7 7 8 8 8
5 4 3 3 3 3 1 0 1 1 1 1 2 1 2 3 3 2 2 2 2 2 2 1 1 2 4 4 3 4 3 4 4 3 3 4 4 5 5 5 4 4 5 5 6 7 7 7 7
4 4 2 2 3 3 1 1 0 1 2 1 2 3 3 3 1 2 3 3 3 3 2 2 1 1 2 2 3 3 3 3 4 4 4 4 4 4 4 4 4 4 5 5 6 6 6 7 7
3 4 3 4 4 2 2 1 2 1 1 1 1 0 2 0 2 3 3 3 3 2 2 2 1 1 1 1 2 2 3 3 3 3 4 4 2 2 2 3 3 4 4 4 5 6 6 6 6
4 3 6 3 2 1 1 1 1 2 2 2 3 3 2 2 3 3 1 1 1 1 1 1 1 1 1 1 1 1 1 2 2 2 2 2 2 2 2 3 3 3 4 4 5 6 6 5 3
3 4 3 2 1 0 1 2 2 2 1 3 4 2 0 1 1 1 2 2 2 2 1 1 0 1 1 1 1 1 1 1 2 2 2 2 2 2 2 1 2 2 3 3 3 3 3 3 2
2 1 1 1 1 1 1 1 1 1 3 3 3 3 2 2 3 3 2 2 2 1 2 1 0 0 1 1 1 1 1 1 1 1 2 2 1 1 1 1 1 1 1 2 2 2 2 3 3
1 2 1 1 1 1 1 1 1 3 4 3 2 1 2 2 2 2 1 2 2 2 2 2 0 1 0 1 1 1 1 1 2 2 2 2 2 1 1 1 1 2 1 2 2 2 2 2 3
1 0 2 2 1 1 0 3 1 4 2 2 2 1 2 2 2 1 1 2 2 3 3 2 1 1 1 1 1 1 1 1 2 2 2 2 2 2 2 2 2 2 1 1 2 2 2 2 2
1 1 3 2 1 1 0 4 4 4 1 1 2 3 3 3 2 3 2 2 3 3 3 2 1 1 1 1 1 1 1 1 2 2 2 2 2 2 2 2 2 1 1 2 2 3 2 2 3
2 2 2 3 1 1 1 6 5 3 2 3 4 4 4 4 3 3 2 2 2 2 2 2 1 1 2 2 1 1 1 2 1 1 2 2 2 2 3 2 2 1 2 2 2 2 3 2 2
3 0 3 4 1 0 2 7 5 3 2 4 5 4 4 4 4 3 3 3 2 3 2 2 1 2 2 2 1 1 1 1 1 1 2 2 2 2 3 2 2 2 2 2 2 2 2 2 2
3 2 3 4 2 0 3 8 8 4 3 5 5 5 4 4 6 4 3 3 2 3 2 1 2 2 1 1 1 1 1 1 1 1 1 2 2 3 3 2 3 3 2 2 2 2 2 2 2
3 3 3 5 3 2 5 9 10 6 3 5 5 5 5 5 5 3 2 2 2 2 1 1 2 2 1 1 1 2 2 2 1 1 2 2 2 3 3 2 3 3 3 3 3 3 3 2 2
1 2 3 4 2 2 5 10 8 5 4 5 5 5 5 5 4 3 3 2 2 2 2 2 2 2 2 2 2 2 2 1 2 1 1 2 2 2 3 3 3 3 3 3 3 3 2 1 1
2 3 3 3 3 2 4 8 4 4 3 3 4 4 4 4 5 4 3 3 3 3 3 3 3 3 3 2 1 1 1 0 1 1 1 1 2 3 2 3 3 3 3 4 4 3 3 2 0
4 3 3 1 1 3 2 6 7 4 5 4 5 4 4 4 4 4 4 3 4 4 3 3 3 2 2 2 2 3 2 2 3 2 2 2 2 3 3 3 3 3 3 3 4 3 2 3 2
3 0 1 1 2 2 1 3 9 3 5 6 5 5 5 4 4 4 4 4 4 3 2 2 2 2 2 2 3 4 3 2 1 1 2 2 2 2 3 3 3 3 2 3 3 3 3 3 3
2 3 3 3 3 3 4 4 9 4 5 6 5 5 5 5 4 4 4 3 3 3 2 1 2 2 1 1 2 4 4 3 2 2 2 2 1 2 3 3 3 3 2 3 3 3 3 3 2
3 4 3 4 2 6 2 4 10 6 4 4 5 5 5 4 4 4 4 3 3 3 2 2 2 3 2 2 2 3 4 5 5 4 3 3 2 2 3 3 3 2 2 2 2 2 3 3 3
3 4 5 4 5 5 2 6 8 4 3 4 3 3 4 4 4 4 5 4 3 3 3 2 2 3 3 3 3 3 3 3 3 4 3 3 3 2 3 3 3 3 2 2 2 2 2 2 2
4 2 3 4 1 3 6 6 9 3 4 5 5 5 5 5 5 5 5 5 4 4 4 3 3 3 3 3 3 3 3 3 3 3 2 2 2 2 3 3 3 3 3 3 3 2 2 2 2
3 5 4 3 2 4 5 5 5 5 5 5 6 6 5 5 5 5 5 5 4 4 4 3 3 3 3 2 2 2 2 2 3 3 2 2 2 2 3 3 3 3 3 3 3 2 2 2 1
3 3 3 3 3 3 4 7 5 5 3 4 5 5 5 5 5 5 5 5 5 4 4 3 3 3 2 2 2 2 2 1 2 3 3 2 2 2 3 3 3 3 3 3 3 2 3 3 2
3 5 5 4 4 3 3 9 3 2 3 3 4 5 5 4 4 4 4 4 5 5 5 4 4 3 2 2 2 1 1 1 1 2 2 3 3 2 2 3 2 2 2 2 3 3 3 3 3
Wind_Direction
343 10 62 57 58 56 221 238 224 264 244 261 110 136 151 160 170 200 310 52 79 120 151 152 142 135 129 122 112 110 111 110 108 106 105 106 108 112 111 108 109 111 108 104 100 94 91 90 90
348 34 55 61 93 157 252 232 219 223 200 131 35 78 87 298 346 69 356 338 66 111 126 146 143 138 133 128 122 112 115 117 114 112 110 110 110 110 110 111 112 113 110 105 101 97 93 91 91
37 53 81 82 128 188 216 215 219 253 233 95 54 42 98 276 333 237 299 341 61 73 85 151 141 140 134 132 127 121 116 121 123 122 117 115 112 110 110 107 110 114 112 107 104 101 97 95 94
68 50 59 87 205 221 218 237 208 28 19 40 95 43 358 3 297 275 334 74 78 58 44 125 131 138 133 130 128 121 120 116 122 124 123 122 117 112 106 105 104 109 114 115 112 108 104 102 98
60 79 78 123 236 244 240 272 244 41 345 14 113 118 315 347 360 37 56 79 90 60 37 69 129 134 132 130 128 129 126 121 115 127 128 125 123 114 108 108 105 106 110 118 118 112 108 107 105
63 74 114 214 238 257 266 270 221 281 338 48 101 115 269 345 14 19 46 55 63 85 64 77 135 131 129 132 131 130 132 130 124 120 128 125 124 118 111 111 111 110 113 112 116 115 110 108 107
105 109 164 198 236 268 272 328 154 202 248 237 159 132 291 331 343 14 43 48 42 44 52 37 111 130 129 126 134 133 125 121 118 109 106 116 121 122 118 109 112 118 119 120 117 116 112 111 108
116 110 144 201 210 249 320 1 42 180 229 286 134 150 250 280 342 50 46 44 38 36 41 36 56 96 117 132 117 118 121 115 107 94 79 84 104 109 109 102 101 109 122 124 123 111 112 109 106
86 93 200 211 195 237 340 19 356 359 99 29 34 228 283 87 82 67 42 18 9 13 18 26 36 68 87 113 101 106 104 98 97 94 81 73 83 99 97 85 91 95 106 121 120 116 105 103 98
91 165 220 214 194 215 338 12 341 16 19 0 346 348 28 91 107 106 101 249 281 300 320 5 41 64 69 66 75 80 87 93 87 89 91 82 74 87 78 82 87 90 88 98 110 104 93 87 84
120 187 227 259 234 158 355 355 351 87 274 244 258 269 119 105 113 163 214 231 243 251 271 310 35 79 104 90 90 81 92 99 94 93 88 87 74 82 76 79 69 72 72 65 76 75 72 75 87
134 241 240 282 343 17 356 342 341 250 258 281 253 197 169 167 194 212 235 258 284 278 273 279 354 83 130 129 135 121 119 124 112 112 106 102 94 82 86 93 83 72 67 70 66 75 78 76 80
174 254 290 317 21 35 27 318 265 286 304 341 21 96 164 200 232 253 284 300 286 266 277 278 253 172 148 136 154 130 149 155 146 136 128 117 120 121 113 105 97 78 74 87 89 84 92 89 77
204 26 333 333 330 315 289 294 307 279 317 355 360 275 235 232 240 279 314 299 296 284 271 274 270 226 167 159 172 173 173 166 150 151 143 138 139 140 133 120 108 98 93 99 108 98 98 99 88
82 31 342 318 295 281 36 308 255 262 263 301 286 274 273 270 260 248 254 270 274 282 282 265 246 234 199 193 194 181 182 161 163 168 157 152 148 148 148 137 125 116 108 102 101 89 86 86 84
54 50 313 302 314 305 131 269 271 257 214 258 270 271 275 279 270 267 269 271 276 279 278 278 265 249 231 220 200 189 189 161 166 172 164 158 148 147 143 141 140 126 117 113 118 113 95 82 87
36 267 257 296 293 199 184 258 279 277 235 260 268 265 267 282 290 283 272 261 264 257 253 273 260 241 244 233 200 181 185 169 163 159 167 159 148 140 143 149 143 125 113 106 110 105 106 104 85
223 232 252 261 289 271 246 263 280 282 253 263 271 272 271 270 270 271 269 271 266 258 253 256 266 245 242 236 183 170 188 185 165 174 177 165 156 143 139 147 141 132 126 111 107 109 93 109 103
171 188 245 260 274 274 257 270 277 277 273 277 280 279 278 273 278 278 271 273 270 279 291 267 260 241 201 218 206 195 218 214 189 192 178 162 159 148 148 142 151 151 150 151 142 123 109 94 90
148 213 258 286 314 268 277 276 273 258 242 242 254 266 270 286 306 308 295 281 271 275 279 271 255 236 214 221 219 209 199 204 197 188 175 161 154 159 163 156 162 162 151 145 146 129 124 109 107
227 203 228 265 328 340 317 299 280 277 275 287 277 270 282 275 278 283 287 283 277 269 270 268 261 248 229 216 199 132 110 113 180 190 192 182 168 169 167 169 162 160 159 161 166 161 147 155 168
241 221 205 242 324 302 1 299 290 296 313 308 296 296 290 294 295 295 291 291 280 264 263 265 261 253 237 202 187 176 191 205 214 200 198 191 183 174 170 172 167 160 163 169 177 175 168 158 172
215 121 152 185 181 300 288 249 284 323 303 294 291 288 287 293 291 292 286 275 280 278 267 262 265 260 250 223 202 194 206 210 203 182 188 184 192 186 172 169 174 169 170 177 177 174 172 174 176
141 61 52 58 80 272 232 204 279 262 256 291 299 303 300 304 305 305 306 310 311 319 308 284 276 271 258 242 233 204 204 197 185 196 194 188 192 201 184 165 170 170 170 177 179 178 181 185 170
90 91 30 355 340 251 223 217 254 256 252 273 292 303 312 318 319 319 321 318 318 313 309 305 281 274 259 237 234 222 212 200 198 202 197 189 189 213 198 170 172 172 162 165 160 166 181 183 179
190 150 162 205 236 277 275 236 255 272 292 295 301 308 328 332 328 322 315 310 311 304 297 303 287 271 261 244 238 228 214 202 206 204 194 194 198 204 191 172 171 165 158 160 158 160 181 182 187
145 171 157 136 167 272 264 276 295 297 332 344 346 348 337 331 328 324 324 322 319 314 305 295 287 286 268 257 254 235 217 203 197 194 191 192 188 190 180 167 163 161 158 163 160 160 174 179 196
143 145 116 135 182 262 283 267 259 293 314 332 337 331 323 329 329 330 329 327 324 320 313 312 295 282 282 264 252 251 236 213 188 171 180 197 188 179 176 173 166 163 158 163 160 160 167 168 197
130 135 136 143 177 188 267 268 232 243 270 288 299 306 310 314 318 322 325 327 329 332 329 320 316 310 309 286 263 254 251 225 179 172 178 183 162 166 169 169 166 159 163 166 165 171 172 175 185
173 175 156 170 226 205 220 266 275 244 275 280 294 308 314 313 313 316 321 330 339 337 332 326 316 306 299 296 278 255 247 196 159 166 175 167 157 161 162 149 154 157 158 163 170 181 181 181 190